Home   Weather   Bendigo   Past weeks

Flag for Australia Past Weather in Bendigo, Victoria, Australia — Yesterday and Last 2 Weeks

Now
79 °F

Pleasantly warm.


Feels Like: 78 °F
Forecast: 56 / 76 °F
Wind: 5 mph from West

Location: Bendigo Airport Aws

Current Time: Jan 19, 2017 at 3:46:25 pm

Latest Report: Jan 19, 2017 at 1:00 pm


Visibility: N/A

Pressure: 29.81 "Hg

Humidity: 18%

Dew Point: 32 °F

Location of BendigoLocation

Past Weather in Bendigo — Graph

°F

Bendigo Temperature Yesterday

Maximum temperature yesterday: 79 °F (at 4:00 pm)
Minimum temperature yesterday: 59 °F (at 10:00 pm)
Average temperature yesterday: 70 °F

High & Low Weather Summary for the Past Weeks

 TemperatureHumidityPressure
High105 °F (Jan 17, 4:00 pm)96% (Jan 9, 10:00 pm)30.06 "Hg (Jan 9, 10:00 pm)
Low51 °F (Jan 19, 6:00 am)5% (Jan 17, 6:00 pm)29.50 "Hg (Jan 13, 9:00 am)
Average75 °F48%29.83 "Hg
* Reported Jan 4 1:00 pm — Jan 19 1:00 pm, Bendigo, Weather by CustomWeather, © 2017

Note: Actual official high and low records may vary slightly from our data, if they occured in-between our weather recording intervals... More about our weather records

Advertising

Bendigo Weather History for the Previous 24 Hours

Scroll right to see more
 ConditionsComfort  
Time TempWeatherWind HumidityBarometerVisibility
1:00 pm
Thu, Jan 19
79 °FPleasantly warm.5 mph18%29.81 "HgN/A
12:00 pm76 °FMild.3 mph25%29.83 "HgN/A
10:00 am66 °FMild.10 mph41%29.87 "HgN/A
9:00 am61 °FRefreshingly cool.10 mph49%29.88 "HgN/A
7:00 am52 °FCool.10 mph72%29.86 "HgN/A
6:00 am51 °FCool.9 mph72%29.86 "HgN/A
4:00 am51 °FCool.6 mph73%29.87 "HgN/A
3:00 am53 °FCool.9 mph69%29.87 "HgN/A
1:00 am54 °FCool.8 mph65%29.93 "HgN/A
12:00 am56 °FCool.13 mph63%29.93 "HgN/A
10:00 pm
Wed, Jan 18
59 °FRefreshingly cool.12 mph53%29.95 "HgN/A
9:00 pm62 °FRefreshingly cool.15 mph46%29.94 "HgN/A
7:00 pm71 °FMild.17 mph35%29.88 "HgN/A
6:00 pm75 °FMild.18 mph34%29.87 "HgN/A
4:00 pm79 °FPleasantly warm.12 mph29%29.86 "HgN/A
3:00 pm78 °FPassing clouds.8 mph29%29.88 "HgN/A
Weather by CustomWeather, © 2017

See weather overviewHow to use our weather pages